ASIASAT 8

Last updated on Dec. 5, 2020, 6:14 a.m. UTC

1 40107U 14046A   20339.75034221 -.00000017  00000-0  00000-0 0  9997
2 40107   0.0459 118.5421 0001499 119.3022 102.4397  1.00270853 81893
UTC
Height (km)
Latitude
Longitude
Inclination
Orbital Period
UTC large
Height (km)
Speed (km/s)
/
Latitude / Longitude
Inclination (degrees)
Orbital Period (minutes)
Azimuth
Elevation
Range (km)
Doppler Factor
iOS Compass Heading
iOS Angle

Next 30 passes for location: Hong Kong

Rise time Rise Azimuth (degrees) Set time Set Azimuth (degrees) Duration Max altitude (degrees)

No matching passes for this satellites